Location: Cantaing
(50.1487°N, 3.1675°E)
Time: 09:45:20
(UTC+00:00)

Meteor 1-11 Rocket - Pass Details

Date: 14 January 2026
Orbit: 830 x 914 km, 81.2° (Epoch: 17 February)

Event Time Altitude Azimuth Distance (km) Brightness Sun altitude
Exits shadow 05:09:16 50° 307° (NW) 1,127 3.9 -23.6°
Drops below altitude 10° 05:14:22 10° 4° (N) 2,534 6.1 -22.8°
Sets 05:16:52 0° 10° (N) 3,462 6.9 -22.4°
